When you browse on this site, cookies collect data to enhance your experience and personalize the content and advertising you see.
Visit our Privacy Policy to learn more. By continuing to use the site, you agree to this use of cookies and data.
  • In United Kingdom
  • List of Countries
  • For 7 days
  • Water Temperature
  • Weather Map
  • Weather Widgets
  • user-avatar
    Login

    Hourly Weather Ropotamo

    Today, 19 October, Saturday

    Time Temperature Precipitation Wind Pressure Humidity
    00:00 +15°C° 0 mm 1 mps 760 mmHg 88%
    01:00 +14°C° 0 mm 0 mps 760 mmHg 88%
    02:00 +14°C° 0 mm 0 mps 760 mmHg 87%
    03:00 +14°C° 0 mm 0 mps 760 mmHg 87%
    04:00 +14°C° 0 mm 0 mps 760 mmHg 86%
    05:00 +14°C° 0 mm 0 mps 760 mmHg 86%
    06:00 +15°C° 0 mm 0 mps 760 mmHg 81%
    07:00 +15°C° 0 mm 0 mps 760 mmHg 77%
    08:00 +16°C° 0 mm 0 mps 760 mmHg 73%
    09:00 +18°C° 0 mm 0 mps 761 mmHg 66%
    10:00 +22°C° 0 mm 1 mps 761 mmHg 59%
    11:00 +24°C° 0 mm 1 mps 761 mmHg 52%
    12:00 +24°C° 0 mm 2 mps 761 mmHg 53%
    13:00 +25°C° 0 mm 2 mps 760 mmHg 53%
    14:00 +25°C° 0 mm 2 mps 760 mmHg 53%
    15:00 +23°C° 0 mm 2 mps 760 mmHg 62%
    16:00 +21°C° 0 mm 2 mps 760 mmHg 70%
    17:00 +19°C° 0 mm 2 mps 760 mmHg 78%
    18:00 +18°C° 0 mm 2 mps 760 mmHg 82%
    19:00 +17°C° 0 mm 2 mps 760 mmHg 86%
    20:00 +16°C° 0 mm 2 mps 761 mmHg 90%
    21:00 +16°C° 0 mm 2 mps 761 mmHg 89%
    22:00 +16°C° 0 mm 2 mps 761 mmHg 89%
    23:00 +15°C° 0 mm 1 mps 761 mmHg 89%

    Tomorrow, 20 October, Sunday

    Time Temperature Precipitation Wind Pressure Humidity
    00:00 +15°C° 0 mm 1 mps 761 mmHg 88%
    01:00 +15°C° 0 mm 1 mps 761 mmHg 88%
    02:00 +15°C° 0 mm 1 mps 761 mmHg 88%
    03:00 +15°C° 0 mm 1 mps 761 mmHg 87%
    04:00 +14°C° 0 mm 0 mps 761 mmHg 87%
    05:00 +13°C° 0 mm 0 mps 761 mmHg 86%
    06:00 +14°C° 0 mm 0 mps 761 mmHg 82%
    07:00 +15°C° 0 mm 0 mps 762 mmHg 78%
    08:00 +18°C° 0 mm 1 mps 762 mmHg 74%
    09:00 +20°C° 0 mm 1 mps 762 mmHg 67%
    10:00 +22°C° 0 mm 1 mps 762 mmHg 60%
    11:00 +24°C° 0 mm 2 mps 762 mmHg 54%
    12:00 +24°C° 0 mm 2 mps 762 mmHg 54%
    13:00 +24°C° 0 mm 2 mps 762 mmHg 54%
    14:00 +24°C° 0 mm 3 mps 761 mmHg 54%
    15:00 +23°C° 0 mm 2 mps 761 mmHg 62%
    16:00 +20°C° 0 mm 2 mps 761 mmHg 70%
    17:00 +18°C° 0 mm 2 mps 761 mmHg 79%
    18:00 +17°C° 0 mm 2 mps 762 mmHg 83%
    19:00 +16°C° 0 mm 2 mps 762 mmHg 87%
    20:00 +15°C° 0 mm 2 mps 762 mmHg 91%
    21:00 +15°C° 0 mm 1 mps 762 mmHg 91%
    22:00 +15°C° 0 mm 1 mps 762 mmHg 92%
    23:00 +15°C° 0 mm 1 mps 763 mmHg 92%

    Day after tomorrow, 21 October, Monday

    Time Temperature Precipitation Wind Pressure Humidity
    00:00 +15°C° 0 mm 1 mps 762 mmHg 93%
    01:00 +14°C° 0 mm 1 mps 762 mmHg 93%
    02:00 +14°C° 0 mm 1 mps 762 mmHg 94%
    03:00 +14°C° 0 mm 1 mps 762 mmHg 94%
    04:00 +14°C° 0 mm 1 mps 762 mmHg 94%
    05:00 +14°C° 0 mm 1 mps 762 mmHg 93%
    06:00 +15°C° 0 mm 1 mps 762 mmHg 91%
    07:00 +16°C° 0 mm 1 mps 762 mmHg 89%
    08:00 +18°C° 0 mm 1 mps 762 mmHg 87%
    09:00 +19°C° 0 mm 1 mps 763 mmHg 78%
    10:00 +20°C° 0 mm 2 mps 763 mmHg 69%
    11:00 +23°C° 0 mm 2 mps 763 mmHg 60%
    12:00 +23°C° 0 mm 2 mps 762 mmHg 59%
    13:00 +23°C° 0 mm 2 mps 762 mmHg 58%
    14:00 +24°C° 0 mm 3 mps 762 mmHg 57%
    15:00 +21°C° 0 mm 3 mps 762 mmHg 64%
    16:00 +20°C° 0 mm 2 mps 762 mmHg 71%
    17:00 +18°C° 0 mm 2 mps 762 mmHg 78%
    18:00 +17°C° 0 mm 2 mps 762 mmHg 81%
    19:00 +16°C° 0 mm 1 mps 762 mmHg 85%
    20:00 +16°C° 0 mm 1 mps 762 mmHg 88%
    21:00 +15°C° 0 mm 1 mps 762 mmHg 88%
    22:00 +15°C° 0 mm 1 mps 762 mmHg 88%
    23:00 +15°C° 0 mm 1 mps 762 mmHg 89%

    22 October, Tuesday

    Time Temperature Precipitation Wind Pressure Humidity
    00:00 +15°C° 0 mm 1 mps 762 mmHg 89%
    01:00 +15°C° 0 mm 1 mps 762 mmHg 89%
    02:00 +15°C° 0 mm 2 mps 762 mmHg 90%
    03:00 +14°C° 0 mm 2 mps 762 mmHg 90%
    04:00 +14°C° 0 mm 2 mps 762 mmHg 91%
    05:00 +14°C° 0 mm 2 mps 762 mmHg 91%
    06:00 +15°C° 0 mm 2 mps 762 mmHg 88%
    07:00 +16°C° 0 mm 2 mps 762 mmHg 85%
    08:00 +17°C° 0 mm 2 mps 762 mmHg 82%
    09:00 +18°C° 0 mm 2 mps 762 mmHg 72%
    10:00 +20°C° 0 mm 3 mps 762 mmHg 62%
    11:00 +22°C° 0 mm 3 mps 762 mmHg 52%
    12:00 +22°C° 0 mm 3 mps 762 mmHg 49%
    13:00 +23°C° 0 mm 4 mps 762 mmHg 47%
    14:00 +23°C° 0 mm 4 mps 762 mmHg 45%
    15:00 +21°C° 0 mm 4 mps 762 mmHg 54%
    16:00 +20°C° 0 mm 4 mps 762 mmHg 62%
    17:00 +18°C° 0 mm 3 mps 761 mmHg 71%
    18:00 +17°C° 0 mm 3 mps 762 mmHg 77%
    19:00 +16°C° 0 mm 3 mps 762 mmHg 83%
    20:00 +16°C° 0 mm 3 mps 762 mmHg 89%
    21:00 +15°C° 0 mm 2 mps 762 mmHg 90%
    22:00 +15°C° 0 mm 2 mps 762 mmHg 91%
    23:00 +15°C° 0 mm 2 mps 762 mmHg 91%

    23 October, Wednesday

    Time Temperature Precipitation Wind Pressure Humidity
    00:00 +15°C° 0 mm 2 mps 762 mmHg 91%
    01:00 +15°C° 0 mm 2 mps 762 mmHg 91%
    02:00 +14°C° 0 mm 2 mps 762 mmHg 91%
    03:00 +14°C° 0 mm 2 mps 762 mmHg 92%
    04:00 +13°C° 0 mm 3 mps 762 mmHg 92%
    05:00 +13°C° 0 mm 3 mps 762 mmHg 92%
    06:00 +13°C° 0 mm 3 mps 762 mmHg 88%
    07:00 +14°C° 0 mm 3 mps 762 mmHg 85%
    08:00 +16°C° 0 mm 3 mps 763 mmHg 81%
    09:00 +17°C° 0 mm 4 mps 763 mmHg 74%
    10:00 +19°C° 0 mm 4 mps 763 mmHg 68%
    11:00 +20°C° 0 mm 5 mps 763 mmHg 61%
    12:00 +21°C° 0 mm 5 mps 762 mmHg 61%
    13:00 +21°C° 0 mm 5 mps 762 mmHg 60%
    14:00 +21°C° 0 mm 5 mps 762 mmHg 59%
    15:00 +20°C° 0 mm 4 mps 762 mmHg 66%
    16:00 +19°C° 0 mm 4 mps 762 mmHg 73%
    17:00 +17°C° 0 mm 4 mps 762 mmHg 79%
    18:00 +17°C° 0 mm 3 mps 762 mmHg 83%
    19:00 +16°C° 0 mm 3 mps 762 mmHg 87%
    20:00 +14°C° 0 mm 3 mps 762 mmHg 91%
    21:00 +14°C° 0 mm 3 mps 762 mmHg 91%
    22:00 +14°C° 0 mm 3 mps 762 mmHg 92%
    23:00 +13°C° 0 mm 3 mps 763 mmHg 92%

    24 October, Thursday

    Time Temperature Precipitation Wind Pressure Humidity
    00:00 +13°C° 0 mm 3 mps 762 mmHg 93%
    01:00 +13°C° 0 mm 3 mps 762 mmHg 93%
    02:00 +13°C° 0 mm 3 mps 762 mmHg 93%
    03:00 +13°C° 0 mm 3 mps 762 mmHg 93%
    04:00 +12°C° 0 mm 3 mps 762 mmHg 93%
    05:00 +12°C° 0 mm 3 mps 762 mmHg 93%
    06:00 +13°C° 0 mm 3 mps 762 mmHg 91%
    07:00 +13°C° 0 mm 3 mps 762 mmHg 88%
    08:00 +14°C° 0 mm 3 mps 762 mmHg 86%
    09:00 +17°C° 0 mm 4 mps 762 mmHg 78%
    10:00 +18°C° 0 mm 4 mps 762 mmHg 69%
    11:00 +20°C° 0 mm 4 mps 762 mmHg 61%
    12:00 +20°C° 0 mm 4 mps 762 mmHg 60%
    13:00 +21°C° 0 mm 4 mps 762 mmHg 59%
    14:00 +21°C° 0 mm 4 mps 762 mmHg 58%
    15:00 +20°C° 0 mm 4 mps 761 mmHg 65%
    16:00 +18°C° 0 mm 4 mps 761 mmHg 73%
    17:00 +17°C° 0 mm 3 mps 761 mmHg 80%
    18:00 +16°C° 0 mm 3 mps 761 mmHg 85%
    19:00 +16°C° 0 mm 3 mps 762 mmHg 89%
    20:00 +14°C° 0 mm 3 mps 762 mmHg 94%
    21:00 +15°C° 0 mm 2 mps 762 mmHg 94%
    22:00 +15°C° 0 mm 2 mps 762 mmHg 93%
    23:00 +15°C° 0 mm 2 mps 762 mmHg 93%
    Show more